| time (UTC) | temp C | wind direction | speed KPH | gust KPH | rain 1hr cm | rain 24hr cm | rain mn cm | humidity % | barometer mb |
| 20260504192010 | 22 | 114 | 0.0 | 20.9 | 0.00 | 0.00 | 0.00 | 33 | 1010.2 |
| 20260504191517 | 22 | 130 | 1.6 | 19.3 | 0.00 | 0.00 | 0.00 | 33 | 1010.3 |
| 20260504191004 | 22 | 123 | 1.6 | 19.3 | 0.00 | 0.00 | 0.00 | 33 | 1010.4 |
| 20260504190508 | 22 | 129 | 0.0 | 16.1 | 0.00 | 0.00 | 0.00 | 32 | 1010.5 |
| 20260504190022 | 22 | 158 | 1.6 | 16.1 | 0.00 | 0.00 | 0.00 | 32 | 1010.7 |
| 20260504185508 | 22 | 117 | 0.0 | 11.3 | 0.00 | 0.00 | 0.00 | 32 | 1010.7 |
| 20260504185009 | 22 | 107 | 1.6 | 11.3 | 0.00 | 0.00 | 0.00 | 32 | 1010.8 |
| 20260504184504 | 22 | 139 | 0.0 | 20.9 | 0.00 | 0.00 | 0.00 | 33 | 1010.8 |
| 20260504184008 | 22 | 122 | 1.6 | 20.9 | 0.00 | 0.00 | 0.00 | 32 | 1010.9 |
| 20260504183505 | 22 | 77 | 3.2 | 14.5 | 0.00 | 0.00 | 0.00 | 31 | 1011.1 |
| 20260504183007 | 22 | 140 | 0.0 | 14.5 | 0.00 | 0.00 | 0.00 | 32 | 1011.0 |
| 20260504182504 | 22 | 124 | 1.6 | 20.9 | 0.00 | 0.00 | 0.00 | 31 | 1011.2 |
| 20260504182010 | 22 | 165 | 3.2 | 20.9 | 0.00 | 0.00 | 0.00 | 31 | 1011.2 |
| 20260504181513 | 22 | 124 | 0.0 | 19.3 | 0.00 | 0.00 | 0.00 | 31 | 1011.0 |
| 20260504181007 | 22 | 127 | 3.2 | 19.3 | 0.00 | 0.00 | 0.00 | 32 | 1011.2 |
| 20260504180509 | 22 | 206 | 0.0 | 19.3 | 0.00 | 0.00 | 0.00 | 32 | 1011.3 |
| 20260504180019 | 22 | 128 | 3.2 | 19.3 | 0.00 | 0.00 | 0.00 | 32 | 1011.5 |
| 20260504175507 | 22 | 148 | 4.8 | 19.3 | 0.00 | 0.00 | 0.00 | 32 | 1011.6 |
| 20260504175007 | 22 | 106 | 0.0 | 16.1 | 0.00 | 0.00 | 0.00 | 33 | 1011.6 |
| 20260504174523 | 22 | 120 | 0.0 | 16.1 | 0.00 | 0.00 | 0.00 | 31 | 1011.6 |
| 20260504174008 | 22 | 77 | 1.6 | 16.1 | 0.00 | 0.00 | 0.00 | 31 | 1011.8 |
| 20260504173509 | 22 | 61 | 0.0 | 22.5 | 0.00 | 0.00 | 0.00 | 33 | 1011.8 |
| 20260504173025 | 22 | 127 | 3.2 | 19.3 | 0.00 | 0.00 | 0.00 | 31 | 1011.8 |
| 20260504172510 | 21 | 127 | 0.0 | 11.3 | 0.00 | 0.00 | 0.00 | 32 | 1011.9 |
| 20260504172003 | 21 | 134 | 1.6 | 17.7 | 0.00 | 0.00 | 0.00 | 32 | 1012.0 |
| 20260504171531 | 21 | 94 | 0.0 | 17.7 | 0.00 | 0.00 | 0.00 | 32 | 1011.9 |
| 20260504171005 | 21 | 123 | 0.0 | 19.3 | 0.00 | 0.00 | 0.00 | 33 | 1012.1 |
| 20260504170508 | 21 | 105 | 1.6 | 24.1 | 0.00 | 0.00 | 0.00 | 31 | 1012.1 |
| 20260504151004 | 19 | 94 | 3.2 | 17.7 | 0.00 | 0.00 | 0.00 | 37 | 1013.5 |
| 20260504150503 | 20 | 81 | 0.0 | 9.7 | 0.00 | 0.00 | 0.00 | 40 | 1013.5 |
| 20260504141002 | 17 | 151 | 0.0 | 4.8 | 0.00 | 0.00 | 0.00 | 51 | 1013.7 |
| 20260504140503 | 17 | 164 | 0.0 | 1.6 | 0.00 | 0.00 | 0.00 | 50 | 1013.7 |
| 20260504130503 | 15 | 84 | 1.6 | 17.7 | 0.00 | 0.00 | 0.00 | 58 | 1014.0 |
| 20260504110504 | 5 | 119 | 0.0 | 0.0 | 0.00 | 0.00 | 0.00 | 38 | 1014.7 |
| 20260504100503 | 1 | 117 | 0.0 | 0.0 | 0.00 | 0.00 | 0.00 | 31 | 1014.4 |
| 20260504082005 | 2 | 118 | 0.0 | 0.0 | 0.00 | 0.00 | 0.00 | 47 | 1014.5 |
| 20260504081511 | 2 | 118 | 0.0 | 0.0 | 0.00 | 0.00 | 0.00 | 49 | 1014.5 |
| 20260504081004 | 2 | 118 | 0.0 | 0.0 | 0.00 | 0.00 | 0.00 | 49 | 1014.5 |
| 20260504080504 | 2 | 118 | 0.0 | 0.0 | 0.00 | 0.00 | 0.00 | 48 | 1014.5 |
| 20260504050505 | 5 | 118 | 0.0 | 0.0 | 0.00 | 0.00 | 0.00 | 72 | 1014.5 |
| 20260504050019 | 5 | 118 | 0.0 | 0.0 | 0.00 | 0.00 | 0.00 | 72 | 1014.4 |
| 20260504045504 | 5 | 118 | 0.0 | 0.0 | 0.00 | 0.00 | 0.00 | 72 | 1014.3 |
| 20260504045003 | 5 | 118 | 0.0 | 0.0 | 0.00 | 0.00 | 0.00 | 72 | 1014.4 |
| 20260504044505 | 5 | 118 | 0.0 | 0.0 | 0.00 | 0.00 | 0.00 | 72 | 1014.4 |
| 20260504044003 | 5 | 118 | 0.0 | 0.0 | 0.00 | 0.00 | 0.00 | 71 | 1014.4 |
| 20260504043504 | 5 | 118 | 0.0 | 0.0 | 0.00 | 0.00 | 0.00 | 71 | 1014.3 |
| 20260504043004 | 5 | 118 | 0.0 | 0.0 | 0.00 | 0.00 | 0.00 | 70 | 1014.3 |
| 20260504042503 | 5 | 118 | 0.0 | 0.0 | 0.00 | 0.00 | 0.00 | 69 | 1014.2 |
| 20260504042005 | 6 | 118 | 0.0 | 0.0 | 0.00 | 0.00 | 0.00 | 69 | 1014.1 |
| 20260504041508 | 6 | 118 | 0.0 | 0.0 | 0.00 | 0.00 | 0.00 | 69 | 1014.0 |
| 20260504041004 | 6 | 118 | 0.0 | 0.0 | 0.00 | 0.00 | 0.00 | 70 | 1013.9 |
| 20260504040504 | 6 | 118 | 0.0 | 0.0 | 0.00 | 0.00 | 0.00 | 69 | 1013.9 |
| 20260504040022 | 6 | 118 | 0.0 | 0.0 | 0.00 | 0.00 | 0.00 | 69 | 1013.9 |
| 20260504035505 | 6 | 118 | 0.0 | 0.0 | 0.00 | 0.00 | 0.00 | 68 | 1013.8 |
| 20260504035008 | 7 | 118 | 0.0 | 0.0 | 0.00 | 0.00 | 0.00 | 65 | 1013.8 |
| 20260504034520 | 7 | 118 | 0.0 | 0.0 | 0.00 | 0.00 | 0.00 | 63 | 1013.7 |
| 20260504034007 | 7 | 118 | 0.0 | 0.0 | 0.00 | 0.00 | 0.00 | 60 | 1013.7 |
| 20260504033503 | 8 | 118 | 0.0 | 0.0 | 0.00 | 0.00 | 0.00 | 58 | 1013.8 |
| 20260504033003 | 8 | 118 | 0.0 | 0.0 | 0.00 | 0.00 | 0.00 | 57 | 1013.7 |
| 20260504032503 | 8 | 118 | 0.0 | 0.0 | 0.00 | 0.00 | 0.00 | 56 | 1013.6 |
| 20260504032007 | 8 | 118 | 0.0 | 0.0 | 0.00 | 0.00 | 0.00 | 55 | 1013.6 |
| 20260504031511 | 9 | 118 | 0.0 | 0.0 | 0.00 | 0.00 | 0.00 | 55 | 1013.6 |
| 20260504031006 | 9 | 127 | 0.0 | 0.0 | 0.00 | 0.00 | 0.00 | 54 | 1013.6 |
| 20260504030515 | 9 | 128 | 0.0 | 0.0 | 0.00 | 0.00 | 0.00 | 54 | 1013.6 |
| 20260504030023 | 8 | 128 | 0.0 | 0.0 | 0.00 | 0.00 | 0.00 | 55 | 1013.5 |
| 20260504025503 | 8 | 127 | 0.0 | 0.0 | 0.00 | 0.00 | 0.00 | 57 | 1013.5 |
| 20260504025006 | 8 | 109 | 0.0 | 0.0 | 0.00 | 0.00 | 0.00 | 59 | 1013.6 |
| 20260504024548 | 8 | 129 | 0.0 | 0.0 | 0.00 | 0.00 | 0.00 | 59 | 1013.6 |
| 20260504024007 | 8 | 125 | 0.0 | 0.0 | 0.00 | 0.00 | 0.00 | 60 | 1013.5 |
| 20260504023514 | 8 | 122 | 0.0 | 0.0 | 0.00 | 0.00 | 0.00 | 60 | 1013.6 |
| 20260504023047 | 8 | 122 | 0.0 | 0.0 | 0.00 | 0.00 | 0.00 | 61 | 1013.6 |
| 20260504022509 | 8 | 120 | 0.0 | 0.0 | 0.00 | 0.00 | 0.00 | 61 | 1013.6 |
| 20260504022007 | 8 | 120 | 0.0 | 0.0 | 0.00 | 0.00 | 0.00 | 59 | 1013.6 |
| 20260504021504 | 8 | 120 | 0.0 | 0.0 | 0.00 | 0.00 | 0.00 | 58 | 1013.6 |
| 20260504021003 | 8 | 120 | 0.0 | 0.0 | 0.00 | 0.00 | 0.00 | 58 | 1013.6 |
| 20260504020503 | 8 | 120 | 0.0 | 0.0 | 0.00 | 0.00 | 0.00 | 62 | 1013.6 |
| 20260504020012 | 8 | 120 | 0.0 | 0.0 | 0.00 | 0.00 | 0.00 | 60 | 1013.5 |
| 20260504015503 | 8 | 120 | 0.0 | 0.0 | 0.00 | 0.00 | 0.00 | 57 | 1013.5 |
| 20260504015004 | 9 | 120 | 0.0 | 0.0 | 0.00 | 0.00 | 0.00 | 53 | 1013.5 |
| 20260504014512 | 9 | 120 | 0.0 | 0.0 | 0.00 | 0.00 | 0.00 | 52 | 1013.5 |
| 20260504014008 | 10 | 120 | 0.0 | 0.0 | 0.00 | 0.00 | 0.00 | 51 | 1013.5 |
| 20260504013508 | 10 | 120 | 0.0 | 0.0 | 0.00 | 0.00 | 0.00 | 49 | 1013.4 |
| 20260504013018 | 10 | 120 | 0.0 | 0.0 | 0.00 | 0.00 | 0.00 | 50 | 1013.4 |
| 20260504012510 | 10 | 120 | 0.0 | 0.0 | 0.00 | 0.00 | 0.00 | 49 | 1013.3 |
| 20260504012011 | 10 | 120 | 0.0 | 0.0 | 0.00 | 0.00 | 0.00 | 48 | 1013.3 |
| 20260504011524 | 10 | 120 | 0.0 | 0.0 | 0.00 | 0.00 | 0.00 | 49 | 1013.2 |
| 20260504011008 | 10 | 120 | 0.0 | 0.0 | 0.00 | 0.00 | 0.00 | 48 | 1013.2 |
| 20260504010507 | 11 | 120 | 0.0 | 0.0 | 0.00 | 0.00 | 0.00 | 47 | 1013.2 |
| 20260504010005 | 11 | 120 | 0.0 | 0.0 | 0.00 | 0.00 | 0.00 | 46 | 1013.1 |
| 20260504005504 | 11 | 120 | 0.0 | 0.0 | 0.00 | 0.00 | 0.00 | 46 | 1013.0 |
| 20260504005003 | 11 | 121 | 0.0 | 0.0 | 0.00 | 0.00 | 0.00 | 44 | 1012.8 |
| 20260504004510 | 11 | 122 | 0.0 | 0.0 | 0.00 | 0.00 | 0.00 | 43 | 1012.8 |
| 20260504004011 | 11 | 115 | 0.0 | 0.0 | 0.00 | 0.00 | 0.00 | 43 | 1012.8 |
| 20260504003503 | 12 | 113 | 0.0 | 0.0 | 0.00 | 0.00 | 0.00 | 43 | 1012.7 |
| 20260504003013 | 12 | 134 | 0.0 | 0.0 | 0.00 | 0.00 | 0.00 | 42 | 1012.7 |
| 20260504002503 | 12 | 95 | 0.0 | 0.0 | 0.00 | 0.00 | 0.00 | 42 | 1012.5 |
| 20260504002007 | 12 | 96 | 0.0 | 0.0 | 0.00 | 0.00 | 0.00 | 40 | 1012.5 |
| 20260504001518 | 13 | 110 | 0.0 | 0.0 | 0.00 | 0.00 | 0.00 | 39 | 1012.4 |
| 20260504001006 | 12 | 102 | 0.0 | 1.6 | 0.00 | 0.00 | 0.00 | 39 | 1012.4 |
| 20260504000507 | 13 | 113 | 0.0 | 1.6 | 0.00 | 0.00 | 0.00 | 39 | 1012.3 |
| 20260504000022 | 13 | 105 | 0.0 | 0.0 | 0.00 | 0.00 | 0.00 | 39 | 1012.3 |
| 20260503235507 | 13 | 99 | 0.0 | 0.0 | 0.00 | 0.00 | 0.00 | 37 | 1012.2 |
| 20260503235007 | 13 | 121 | 0.0 | 0.0 | 0.00 | 0.00 | 0.00 | 38 | 1012.2 |
| 20260503234508 | 13 | 124 | 0.0 | 0.0 | 0.00 | 0.00 | 0.00 | 36 | 1012.2 |
| 20260503234004 | 14 | 114 | 0.0 | 0.0 | 0.00 | 0.00 | 0.00 | 35 | 1012.1 |
| 20260503233504 | 14 | 118 | 0.0 | 0.0 | 0.00 | 0.00 | 0.00 | 36 | 1012.1 |
| 20260503233010 | 15 | 120 | 0.0 | 0.0 | 0.00 | 0.00 | 0.00 | 34 | 1012.1 |
| 20260503232504 | 15 | 130 | 0.0 | 0.0 | 0.00 | 0.00 | 0.00 | 33 | 1012.1 |
| 20260503232004 | 15 | 124 | 0.0 | 8.0 | 0.00 | 0.00 | 0.00 | 32 | 1012.1 |
| 20260503231517 | 15 | 131 | 0.0 | 11.3 | 0.00 | 0.00 | 0.00 | 32 | 1012.2 |
| 20260503231008 | 15 | 119 | 0.0 | 11.3 | 0.00 | 0.00 | 0.00 | 32 | 1012.1 |
| 20260503230512 | 15 | 146 | 0.0 | 11.3 | 0.00 | 0.00 | 0.00 | 32 | 1012.0 |
| 20260503230023 | 15 | 124 | 0.0 | 8.0 | 0.00 | 0.00 | 0.00 | 31 | 1012.0 |
| 20260503225507 | 16 | 136 | 0.0 | 8.0 | 0.00 | 0.00 | 0.00 | 31 | 1011.9 |
| 20260503225006 | 16 | 131 | 0.0 | 8.0 | 0.00 | 0.00 | 0.00 | 31 | 1012.0 |
| 20260503224524 | 16 | 135 | 0.0 | 11.3 | 0.00 | 0.00 | 0.00 | 30 | 1012.0 |
| 20260503224008 | 16 | 137 | 0.0 | 11.3 | 0.00 | 0.00 | 0.00 | 30 | 1012.0 |
| 20260503223514 | 16 | 136 | 0.0 | 4.8 | 0.00 | 0.00 | 0.00 | 30 | 1012.0 |
| 20260503223024 | 16 | 143 | 0.0 | 17.7 | 0.00 | 0.00 | 0.00 | 29 | 1011.9 |
| 20260503222505 | 16 | 145 | 0.0 | 17.7 | 0.00 | 0.00 | 0.00 | 30 | 1012.0 |
| 20260503222004 | 16 | 172 | 1.6 | 12.9 | 0.00 | 0.00 | 0.00 | 29 | 1011.9 |
| 20260503221512 | 16 | 139 | 0.0 | 12.9 | 0.00 | 0.00 | 0.00 | 28 | 1011.9 |
| 20260503221013 | 16 | 118 | 1.6 | 24.1 | 0.00 | 0.00 | 0.00 | 28 | 1012.0 |
| 20260503220505 | 16 | 153 | 8.0 | 24.1 | 0.00 | 0.00 | 0.00 | 28 | 1011.9 |
| 20260503220036 | 16 | 146 | 0.0 | 16.1 | 0.00 | 0.00 | 0.00 | 28 | 1011.9 |
| 20260503215508 | 16 | 162 | 0.0 | 16.1 | 0.00 | 0.00 | 0.00 | 28 | 1012.0 |
| 20260503215007 | 16 | 189 | 1.6 | 16.1 | 0.00 | 0.00 | 0.00 | 29 | 1011.9 |
| 20260503214524 | 16 | 127 | 0.0 | 24.1 | 0.00 | 0.00 | 0.00 | 28 | 1011.8 |
| 20260503214009 | 16 | 141 | 0.0 | 24.1 | 0.00 | 0.00 | 0.00 | 28 | 1011.8 |
| 20260503213509 | 16 | 161 | 1.6 | 24.1 | 0.00 | 0.00 | 0.00 | 28 | 1011.8 |
| 20260503213026 | 16 | 130 | 0.0 | 20.9 | 0.00 | 0.00 | 0.00 | 28 | 1011.7 |
| 20260503212509 | 16 | 132 | 1.6 | 14.5 | 0.00 | 0.00 | 0.00 | 29 | 1011.8 |
| 20260503212008 | 16 | 127 | 0.0 | 19.3 | 0.00 | 0.00 | 0.00 | 28 | 1011.7 |
| 20260503211528 | 16 | 132 | 0.0 | 19.3 | 0.00 | 0.00 | 0.00 | 28 | 1011.8 |
| 20260503211004 | 16 | 124 | 0.0 | 12.9 | 0.00 | 0.00 | 0.00 | 29 | 1011.8 |
| 20260503210503 | 16 | 213 | 0.0 | 14.5 | 0.00 | 0.00 | 0.00 | 29 | 1011.8 |
| 20260503210014 | 16 | 249 | 0.0 | 14.5 | 0.00 | 0.00 | 0.00 | 29 | 1011.8 |
| 20260503205504 | 16 | 180 | 0.0 | 11.3 | 0.00 | 0.00 | 0.00 | 28 | 1011.8 |
| 20260503205005 | 16 | 115 | 0.0 | 19.3 | 0.00 | 0.00 | 0.00 | 28 | 1011.8 |
| 20260503204518 | 15 | 152 | 0.0 | 19.3 | 0.00 | 0.00 | 0.00 | 30 | 1011.9 |
| 20260503204009 | 16 | 104 | 1.6 | 16.1 | 0.00 | 0.00 | 0.00 | 29 | 1012.1 |
| 20260503203505 | 16 | 127 | 1.6 | 16.1 | 0.00 | 0.00 | 0.00 | 29 | 1012.0 |
| 20260503203029 | 16 | 150 | 1.6 | 16.1 | 0.00 | 0.00 | 0.00 | 30 | 1012.1 |
| 20260503202508 | 15 | 214 | 0.0 | 20.9 | 0.00 | 0.00 | 0.00 | 30 | 1012.1 |
| 20260503202010 | 16 | 151 | 0.0 | 20.9 | 0.00 | 0.00 | 0.00 | 30 | 1012.2 |
| 20260503201526 | 16 | 307 | 1.6 | 24.1 | 0.00 | 0.00 | 0.00 | 29 | 1012.2 |
| 20260503201011 | 15 | 106 | 1.6 | 24.1 | 0.00 | 0.00 | 0.00 | 29 | 1012.1 |
| 20260503200510 | 15 | 146 | 0.0 | 22.5 | 0.00 | 0.00 | 0.00 | 29 | 1012.3 |
| 20260503200028 | 15 | 176 | 4.8 | 22.5 | 0.00 | 0.00 | 0.00 | 29 | 1012.3 |
| 20260503195503 | 15 | 165 | 0.0 | 27.4 | 0.00 | 0.00 | 0.00 | 31 | 1012.3 |
| 20260503195005 | 15 | 96 | 8.0 | 27.4 | 0.00 | 0.00 | 0.00 | 30 | 1012.2 |
| 20260503194515 | 15 | 165 | 0.0 | 14.5 | 0.00 | 0.00 | 0.00 | 30 | 1012.3 |
| 20260503194007 | 15 | 101 | 0.0 | 14.5 | 0.00 | 0.00 | 0.00 | 30 | 1012.4 |
| 20260503193506 | 15 | 133 | 1.6 | 16.1 | 0.00 | 0.00 | 0.00 | 31 | 1012.4 |
| 20260503193021 | 15 | 192 | 3.2 | 16.1 | 0.00 | 0.00 | 0.00 | 30 | 1012.5 |
| 20260503192506 | 15 | 131 | 3.2 | 16.1 | 0.00 | 0.00 | 0.00 | 30 | 1012.5 |